Location: Newark
(34.6501°N, 117.8502°W)
Time: 15:43:39
(UTC+00:00)

BlueWalker 3 - Visible Passes

Search period start: 04 December 2022 00:00
Search period end: 14 December 2022 00:00
Orbit: 501 x 519 km, 53.2° (Epoch: 04 December)

Date Brightness Start Highest point End Pass type
(mag) Time Alt. Az. Time Alt. Az. Time Alt. Az.
08 Dec 4.2 01:42:24 10° N 01:43:20 11° NNE 01:43:21 11° NNE visible
09 Dec 4.1 01:23:45 10° N 01:24:58 11° NNE 01:26:08 10° NE visible
09 Dec 4.6 03:00:28 10° NW 03:00:59 13° NW 03:00:59 13° NW visible
10 Dec 4.0 01:05:08 10° N 01:06:36 12° NNE 01:08:03 10° NE visible
10 Dec 3.5 02:42:02 10° NW 02:43:59 28° NNW 02:43:59 28° NNW visible
11 Dec 1.9 02:23:36 10° NW 02:27:16 69° NNE 02:27:16 69° NNE visible
12 Dec 1.8 02:05:10 10° NW 02:09:04 77° NE 02:10:56 29° SE visible
13 Dec 1.8 01:46:45 10° NW 01:50:39 84° NE 01:54:30 10° SE visible
